Flag for Germany Weather past 2 weeks in Güstrow, Mecklenburg-Western Pomerania, Germany

Now
52 °F

Passing clouds.


Feels Like: 49 °F
Forecast: 41 / 51 °F
Wind: 8 mph from Southwest

Location: Laage

Current Time: Oct 21, 2014 at 4:48:45 AM

Latest Report: Oct 21, 2014 at 4:20 AM


Visibility: N/A

Pressure: 29.77 "Hg

Humidity: 94%

Dew point: 50 °F

Location of GüstrowLocation

Historic Weather in Güstrow — Graph

°F

Güstrow temperature yesterday

Maximum temperature yesterday: 61 °F (at 1:20 PM)
Minimum temperature yesterday: 54 °F (at 8:20 PM)
Average temperature yesterday: 57 °F

Past Weeks' High & Low Weather Summary

 TemperatureHumidityPressure
High70 °F (Oct 19, 2:20 PM)100% (Oct 9, 5:20 AM)30.18 "Hg (Oct 9, 5:20 AM)
Low43 °F (Oct 6, 6:20 AM)55% (Oct 6, 3:20 PM)29.59 "Hg (Oct 7, 4:50 PM)
Average55 °F90%29.84 "Hg
* Reported Oct 6 3:20 AM — Oct 21 3:50 AM, Güstrow, Weather by CustomWeather, © 2014

Note: Actual official high and low records may vary slightly from our data, if they occured in-between our weather recording intervals... More about our weather records

Advertising

Güstrow weather history for previous 24 hours

 ConditionsComfort  
Time TempWeatherWind HumidityBarometerVisibility
3:50 AM
Oct 21
52 °FPassing clouds.6 mph94%29.77 "HgN/A
3:20 AM52 °FPassing clouds.8 mph94%29.77 "HgN/A
2:20 AM52 °FLight rain. Partly cloudy.7 mph100%29.80 "HgN/A
1:20 AM54 °FRain. Passing clouds.7 mph94%29.80 "Hg5 mi
12:58 AM54 °FLight rain. Passing clouds.8 mph94%29.80 "HgN/A
12:20 AM54 °FLight rain. Passing clouds.6 mph94%29.80 "HgN/A
11:20 PM
Oct 20
54 °FPassing clouds.9 mph88%29.80 "HgN/A
10:20 PM54 °FPassing clouds.7 mph82%29.83 "HgN/A
9:20 PM54 °FPartly cloudy.9 mph82%29.83 "HgN/A
8:20 PM54 °FPassing clouds.9 mph82%29.83 "HgN/A
7:20 PM55 °FPassing clouds.12 mph72%29.83 "HgN/A
6:20 PM55 °FScattered clouds.13 mph77%29.80 "HgN/A
5:20 PM57 °FScattered clouds.9 mph72%29.83 "HgN/A
4:20 PM59 °FScattered clouds.17 mph72%29.80 "HgN/A
3:20 PM61 °FPartly sunny.18 mph63%29.83 "HgN/A
2:20 PM59 °FPartly sunny.17 mph72%29.83 "HgN/A
1:20 PM61 °FScattered clouds.18 mph72%29.80 "HgN/A
12:20 PM59 °FPartly sunny.20 mph77%29.83 "HgN/A
11:20 AM57 °FPartly sunny.16 mph88%29.80 "HgN/A
10:20 AM55 °FBroken clouds.10 mph94%29.80 "HgN/A
9:20 AM55 °FLight rain. Partly sunny.12 mph94%29.77 "HgN/A
9:01 AM55 °FRain. Fog.12 mph94%29.77 "Hg3 mi
8:45 AM55 °FRain. Fog.12 mph94%29.77 "Hg2 mi
8:20 AM55 °FRain. Fog.13 mph94%29.77 "Hg3 mi
7:20 AM57 °FLight rain. Partly cloudy.13 mph82%29.77 "HgN/A
5:20 AM57 °FPartly cloudy.13 mph88%29.77 "HgN/A
4:20 AM57 °FPassing clouds.12 mph88%29.77 "HgN/A
Weather by CustomWeather, © 2014

See weather overviewHow to use our weather pages